Location: Unspecified
(0.0000°N, 0.0000°E)
Time: 09:37:08
(UTC+00:00)

Vanguard 3 - All Passes

Search period start: 16 October 2018 00:00
Search period end: 26 October 2018 00:00
Orbit: 507 x 3265 km, 33.4° (Epoch: 16 October)

Date Brightness Start Highest point End Pass type
(mag) Time Alt. Az. Time Alt. Az. Time Alt. Az.
16 Oct - 00:36:43 10° WNW 00:46:47 39° SW 00:52:46 10° SSE night (unlit)
16 Oct - 09:37:59 10° SSW 09:43:28 30° SE 09:52:11 10° E daylight
16 Oct - 11:47:53 10° WSW 11:56:09 68° NNW 12:11:10 10° NE daylight
16 Oct - 14:02:30 10° WNW 14:13:01 29° NNW 14:27:49 10° NNE daylight
16 Oct - 16:23:30 10° NW 16:34:26 18° N 16:46:13 10° NNE daylight
16 Oct - 18:44:20 10° NNW 18:57:46 21° NNE 19:09:10 10° ENE visible
16 Oct - 21:01:13 10° NW 21:17:26 41° NNE 21:27:45 10° E visible
16 Oct - 23:18:33 10° WNW 23:32:39 76° SW 23:40:17 10° SE visible
17 Oct - 01:40:39 10° WSW 01:44:33 14° SW 01:47:43 10° SSW night (unlit)
17 Oct - 08:28:22 10° SSE 08:29:49 11° SE 08:31:24 10° ESE daylight
17 Oct - 10:34:39 10° SW 10:41:21 75° SE 10:53:45 10° ENE daylight
17 Oct - 12:46:57 10° W 12:56:04 39° NNW 13:10:46 10° NE daylight
17 Oct - 15:04:59 10° NW 15:15:16 20° NNW 15:27:51 10° NNE daylight
17 Oct - 17:26:35 10° NNW 17:38:26 18° N 17:49:58 10° NE daylight
17 Oct - 19:44:13 10° NNW 20:00:09 31° NNE 20:11:55 10° E visible
17 Oct - 22:00:54 10° NW 22:17:31 70° NNE 22:26:55 10° ESE visible
18 Oct - 00:20:18 10° WNW 00:30:43 34° SW 00:37:05 10° SSE night (unlit)
18 Oct - 09:22:18 10° SSW 09:27:29 35° SE 09:35:57 10° ENE daylight
18 Oct - 11:32:38 10° WSW 11:40:12 56° NNW 11:53:48 10° NE daylight
18 Oct - 13:47:48 10° WNW 13:57:11 24° NNW 14:10:12 10° NNE daylight
18 Oct - 16:08:30 10° NW 16:18:46 17° N 16:30:01 10° NE daylight
18 Oct - 18:27:19 10° NNW 18:41:51 24° NNE 18:54:22 10° ENE visible
18 Oct - 20:43:40 10° NW 21:01:17 49° NNE 21:12:32 10° E visible
18 Oct - 23:01:32 10° WNW 23:16:27 65° SW 23:24:44 10° SE visible
19 Oct - 01:25:28 10° WSW 01:28:43 12° SW 01:31:27 10° SSW night (unlit)
19 Oct - 08:11:45 10° SSE 08:14:02 13° SE 08:16:44 10° ESE daylight
19 Oct - 10:19:15 10° SW 10:25:25 90° SSE 10:36:50 10° NE daylight
19 Oct - 12:32:04 10° W 12:40:16 31° NNW 12:53:07 10° NE daylight
19 Oct - 14:50:30 10° NW 14:59:36 18° N 15:10:39 10° NNE daylight
19 Oct - 17:10:23 10° NNW 17:22:41 19° NNE 17:34:51 10° NE daylight
19 Oct - 19:26:48 10° NW 19:44:00 36° NNE 19:56:51 10° E visible
19 Oct - 21:43:33 10° NW 22:01:15 81° NE 22:11:27 10° ESE visible
20 Oct - 00:03:55 10° W 00:14:36 30° SW 00:21:20 10° SSE night (unlit)
20 Oct - 09:06:43 10° SSW 09:11:36 42° SE 09:19:41 10° ENE daylight
20 Oct - 11:17:32 10° W 11:24:26 44° NNW 11:36:25 10° NE daylight
20 Oct - 13:33:21 10° NW 13:41:30 20° NNW 13:52:30 10° NNE daylight
20 Oct - 15:53:22 10° NNW 16:03:09 17° N 16:13:59 10° NE daylight
20 Oct - 18:10:18 10° NNW 18:25:48 27° NNE 18:39:23 10° ENE visible
20 Oct - 20:26:12 10° NW 20:44:57 57° NNE 20:57:09 10° ESE visible
20 Oct - 22:44:33 10° WNW 23:00:07 57° SW 23:09:04 10° SE visible
21 Oct - 01:10:36 10° SW 01:12:53 11° SW 01:14:56 10° SSW night (unlit)
21 Oct - 07:55:31 10° S 07:58:16 15° SE 08:01:37 10° ESE daylight
21 Oct - 10:03:57 10° WSW 10:09:37 73° NW 10:19:55 10° NE daylight
21 Oct - 12:17:25 10° WNW 12:24:37 25° NNW 12:35:25 10° NNE daylight
21 Oct - 14:36:11 10° NW 14:44:03 16° N 14:53:28 10° NNE daylight
21 Oct - 16:54:06 10° NNW 17:06:49 21° NNE 17:19:44 10° ENE daylight
21 Oct - 19:09:29 10° NW 19:27:40 42° NNE 19:41:34 10° E visible
21 Oct - 21:26:15 10° NW 21:44:48 88° SW 21:55:50 10° SE visible
21 Oct - 23:47:36 10° W 23:58:26 27° SW 00:05:31 10° SSE visible
22 Oct - 08:51:11 10° SW 08:55:48 53° SE 09:03:24 10° ENE daylight
22 Oct - 11:02:37 10° W 11:08:49 34° NNW 11:19:01 10° NE daylight
22 Oct - 13:19:13 10° NW 13:25:58 17° N 13:34:41 10° NNE daylight
22 Oct - 15:38:03 10° NNW 15:47:32 16° N 15:58:09 10° NE daylight
22 Oct - 17:53:20 10° NNW 18:09:33 31° NNE 18:24:12 10° E visible
22 Oct - 20:08:51 10° NW 20:28:25 66° NNE 20:41:36 10° ESE visible
22 Oct - 22:27:39 10° WNW 22:43:42 50° SW 22:53:19 10° SSE visible
23 Oct - 07:39:30 10° S 07:42:31 18° SE 07:46:20 10° E daylight
23 Oct - 09:48:47 10° WSW 09:53:59 55° NNW 10:03:01 10° NE daylight
23 Oct - 12:03:03 10° WNW 12:09:06 19° NNW 12:17:36 10° NNE daylight
23 Oct - 14:21:57 10° NNW 14:28:35 14° N 14:36:21 10° NNE daylight
23 Oct - 16:37:43 10° NNW 16:50:51 22° NNE 17:04:31 10° ENE daylight
23 Oct - 18:52:16 10° NW 19:11:08 47° NNE 19:26:04 10° E visible
23 Oct - 21:09:03 10° WNW 21:28:12 79° SW 21:40:06 10° SE visible
23 Oct - 23:31:23 10° W 23:42:15 25° SW 23:49:39 10° S visible
24 Oct - 08:35:45 10° SW 08:40:05 70° SE 08:47:08 10° ENE daylight
24 Oct - 10:47:56 10° WNW 10:53:19 26° NNW 11:01:34 10° NNE daylight
24 Oct - 13:05:32 10° NNW 13:10:33 13° N 13:16:39 10° NNE daylight
24 Oct - 15:22:33 10° NNW 15:31:52 16° NNE 15:42:28 10° NE daylight
24 Oct - 17:36:26 10° NNW 17:53:09 34° NNE 18:08:48 10° E visible
24 Oct - 19:51:36 10° NW 20:11:44 74° NE 20:25:53 10° ESE visible
24 Oct - 22:10:51 10° WNW 22:27:12 45° SW 22:37:28 10° SSE visible
25 Oct - 07:23:35 10° SSW 07:26:48 23° SE 07:30:54 10° E daylight
25 Oct - 09:33:45 10° W 09:38:27 39° NNW 09:46:06 10° NE daylight
25 Oct - 11:49:11 10° NW 11:53:42 15° NNW 11:59:32 10° NNE daylight
25 Oct - 14:07:45 10° NNW 14:13:08 13° N 14:19:20 10° NNE daylight
25 Oct - 16:21:18 10° NNW 16:34:44 24° NNE 16:49:11 10° ENE daylight
25 Oct - 18:35:10 10° NW 18:54:25 54° NNE 19:10:24 10° ESE visible
25 Oct - 20:51:59 10° WNW 21:11:28 71° SW 21:24:14 10° SE visible
25 Oct - 23:15:17 10° W 23:26:05 22° SW 23:33:43 10° S visible
